Flag for Mexico Weather past 2 weeks in Guadalajara, Jalisco, Mexico

Now
72 °F

More clouds than sun.


Feels Like: 77 °F
Forecast: N/A
Wind: No wind

Location: Don Miguel / Guadalaj

Current Time: Jan 25, 2015 at 4:25:02 PM

Latest Report: Jan 25, 2015 at 2:51 PM


Visibility: 8 mi

Pressure: 29.90 "Hg

Humidity: 41%

Dew point: 46 °F

Location of GuadalajaraLocation

Historic Weather in Guadalajara — Graph

°F

Guadalajara temperature yesterday

Maximum temperature yesterday: 75 °F (at 2:52 PM)
Minimum temperature yesterday: 52 °F (at 7:53 AM)
Average temperature yesterday: 63 °F

Past Weeks' High & Low Weather Summary

 TemperatureHumidityPressure
High81 °F (Jan 20, 3:50 PM)93% (Jan 11, 6:48 AM)30.35 "Hg (Jan 11, 6:48 AM)
Low39 °F (Jan 13, 6:50 AM)14% (Jan 20, 4:53 PM)29.74 "Hg (Jan 21, 2:49 PM)
Average61 °F52%30.12 "Hg
* Reported Jan 10 2:54 PM — Jan 25 2:51 PM, Guadalajara, Weather by CustomWeather, © 2014

Note: Actual official high and low records may vary slightly from our data, if they occured in-between our weather recording intervals... More about our weather records

Advertising

Guadalajara weather history for previous 24 hours

 ConditionsComfort  
Time TempWeatherWind HumidityBarometerVisibility
2:51 PM
Jan 25
72 °FMore clouds than sun.No wind41%29.90 "Hg8 mi
1:54 PM72 °FMore clouds than sun.8 mph38%30.16 "Hg8 mi
12:50 PM70 °FMore clouds than sun.No wind43%30.20 "Hg8 mi
11:48 AM70 °FMore clouds than sun.No wind50%29.96 "Hg7 mi
10:52 AM68 °FPartly sunny.No wind53%30.22 "Hg5 mi
9:52 AM63 °FPartly sunny.5 mph59%30.22 "Hg5 mi
8:51 AM57 °FMore clouds than sun.No wind72%30.02 "Hg7 mi
7:47 AM54 °FCloudy.No wind77%30.20 "Hg7 mi
6:50 AM52 °FOvercast.No wind82%30.16 "Hg10 mi
5:46 AM52 °FOvercast.No wind82%29.90 "Hg10 mi
4:45 AM52 °FPassing clouds.No wind77%30.15 "Hg10 mi
2:46 AM54 °FPassing clouds.No wind77%29.87 "Hg10 mi
1:47 AM55 °FPassing clouds.No wind72%30.15 "Hg10 mi
12:46 AM55 °FPassing clouds.No wind67%30.16 "Hg10 mi
11:50 PM
Jan 24
57 °FPassing clouds.No wind63%29.93 "Hg10 mi
10:46 PM57 °FPassing clouds.No wind67%30.18 "Hg10 mi
8:45 PM64 °FPartly cloudy.5 mph49%29.93 "Hg10 mi
7:45 PM66 °FMostly cloudy.5 mph46%30.12 "Hg10 mi
6:45 PM68 °FOvercast.6 mph43%30.09 "Hg10 mi
5:48 PM72 °FMore clouds than sun.8 mph38%29.83 "Hg10 mi
4:51 PM73 °FMore clouds than sun.9 mph33%30.06 "Hg10 mi
Weather by CustomWeather, © 2014

See weather overviewHow to use our weather pages